Atlas Centaur 2 - Orbit

View from above orbital plane
View from above orbital plane
View from above satellite
View from above satellite

Ground track
Ground track

The orbit data is extracted from the following two-line orbital elements,

1 00694U 63047A   13145.85258247  .00001872  00000-0  24071-3 0  2251
2 00694 030.3594 025.4616 0604874 154.4780 302.6019 13.97927153474628
Epoch (UTC): 25 May 2013 20:27:43
Eccentricity: 0.0604874
inclination: 30.3594°
perigee height: 460 km
apogee height: 1341 km
right ascension of ascending node: 25.4616°
argument of perigee: 154.4780°
revolutions per day: 13.97927153
mean anomaly at epoch: 302.6019°
orbit number at epoch: 47462

The dashed part of the orbit path shows where the satellite is in the earth's shadow,  

Developed and maintained by Chris Peat, Heavens-Above GmbH. Please read the updated FAQ before sending e-mail. Imprint. DLR